Location: Deurze
(52.9838°N, 6.6090°E)
Time: 19:31:37
(UTC+00:00)

Cosmos 220 Rocket - Pass Details

Date: 11 March 2026
Orbit: 540 x 572 km, 74.0° (Epoch: 20 April)

Event Time Altitude Azimuth Distance (km) Brightness Sun altitude
Rises 19:00:56 0° 335° (NNW) 2,716 7.9 -14.3°
Reaches altitude 10° 19:03:09 10° 339° (NNW) 1,816 6.9 -14.7°
Maximum altitude 19:07:09 63° 61° (ENE) 609 3.8 -15.2°
Enters shadow 19:09:18 25° 136° (SE) 1,105 4.9 -15.6°
